EW9081 Weather Reports


Display with metric or nautical units.
time (UTC)temp
F
wind
direction
speed
MPH
gust
MPH
rain 1hr
in
rain 24hr
in
rain mn
in
humidity
%
barometer
mb
20260508113801 48 252 1.0 5.0 0.00 0.00 0.00 83 1019.0
20260508113301 48 232 1.0 5.0 0.00 0.00 0.00 83 1019.0
20260508112800 48 263 1.0 5.0 0.00 0.00 0.00 83 1019.0
20260508112301 48 252 2.0 7.0 0.00 0.00 0.00 83 1019.0
20260508111806 48 319 1.0 6.0 0.00 0.00 0.00 84 1019.0
20260508111802 48 246 2.0 7.0 0.00 0.00 0.00 83 1018.9
20260508110803 48 273 2.0 9.0 0.00 0.00 0.00 84 1019.0
20260508110300 48 242 2.0 9.0 0.00 0.00 0.00 84 1018.9
20260508105759 48 224 1.0 6.0 0.00 0.00 0.00 84 1018.7
20260508105300 48 275 1.0 8.0 0.00 0.00 0.00 85 1018.7
20260508104759 48 259 1.0 8.0 0.00 0.00 0.00 85 1018.7
20260508104301 48 268 1.0 5.0 0.00 0.00 0.00 85 1018.5
20260508103759 48 247 1.0 4.0 0.00 0.00 0.00 85 1018.5
20260508103305 48 267 2.0 7.0 0.00 0.00 0.00 85 1018.5
20260508103300 48 238 2.0 7.0 0.00 0.00 0.00 85 1018.5
20260508102259 48 269 2.0 5.0 0.00 0.00 0.00 86 1018.4
20260508101802 48 256 1.0 7.0 0.00 0.00 0.00 86 1018.5
20260508101757 48 256 2.0 5.0 0.00 0.00 0.00 86 1018.4
20260508100802 48 250 2.0 6.0 0.00 0.00 0.00 86 1018.5
20260508100757 48 238 2.0 7.0 0.00 0.00 0.00 86 1018.5
20260508095757 48 256 3.0 9.0 0.00 0.00 0.00 86 1018.4
20260508095257 48 222 3.0 9.0 0.00 0.00 0.00 86 1018.4
20260508094758 47 211 3.0 10.0 0.00 0.00 0.00 87 1018.4
20260508094255 47 252 3.0 10.0 0.00 0.00 0.00 87 1018.3
20260508093756 47 173 4.0 9.0 0.00 0.00 0.00 87 1018.2
20260508093300 47 217 4.0 8.0 0.00 0.00 0.00 87 1018.0
20260508093256 47 223 4.0 9.0 0.00 0.00 0.00 87 1018.1
20260508092906 47 221 4.0 10.0 0.00 0.00 0.00 87 1018.1
20260508091754 47 208 5.0 10.0 0.00 0.00 0.00 87 1018.0
20260508091253 47 235 5.0 10.0 0.00 0.00 0.00 87 1018.0
20260508090752 47 229 4.0 10.0 0.00 0.00 0.00 87 1018.0
20260508090252 47 256 4.0 10.0 0.00 0.00 0.00 87 1017.9
20260508085752 47 205 4.0 10.0 0.00 0.00 0.00 87 1017.7
20260508085252 47 216 5.0 9.0 0.00 0.00 0.00 87 1017.6
20260508084757 47 205 5.0 10.0 0.00 0.00 0.00 87 1017.6
20260508084751 47 240 5.0 9.0 0.00 0.00 0.00 87 1017.6
20260508083749 47 222 5.0 10.0 0.00 0.00 0.00 87 1017.6
20260508083249 47 203 5.0 10.0 0.00 0.00 0.00 87 1017.7
20260508082750 47 225 4.0 10.0 0.00 0.00 0.00 87 1017.7
20260508082250 47 210 3.0 9.0 0.00 0.00 0.00 87 1017.7
20260508081748 47 212 3.0 8.0 0.00 0.00 0.00 87 1017.7
20260508081249 47 241 2.0 8.0 0.00 0.00 0.00 87 1017.7
20260508080750 47 298 2.0 10.0 0.00 0.00 0.00 87 1017.5
20260508080248 47 216 2.0 10.0 0.00 0.00 0.00 87 1017.5
20260508075752 47 192 2.0 9.0 0.00 0.00 0.00 86 1017.4
20260508075747 47 209 3.0 9.0 0.00 0.00 0.00 86 1017.4
20260508074748 47 220 4.0 9.0 0.00 0.00 0.00 86 1017.3
20260508074244 47 203 2.0 9.0 0.00 0.00 0.00 86 1017.3
20260508073745 47 250 2.0 6.0 0.00 0.00 0.00 86 1017.4
20260508073248 47 246 2.0 9.0 0.00 0.00 0.00 85 1017.4
20260508073244 47 254 2.0 6.0 0.00 0.00 0.00 86 1017.3
20260508072245 47 236 2.0 9.0 0.00 0.00 0.00 85 1017.3
20260508071744 48 266 2.0 8.0 0.00 0.00 0.00 85 1017.3
20260508071244 48 214 3.0 13.0 0.00 0.00 0.00 84 1017.2
20260508070744 48 229 5.0 13.0 0.00 0.00 0.00 84 1017.2
20260508070245 48 210 5.0 10.0 0.00 0.00 0.00 84 1017.2
20260508065746 48 229 5.0 12.0 0.00 0.00 0.00 84 1017.2
20260508065249 48 221 3.0 8.0 0.00 0.00 0.00 84 1017.2
20260508065245 48 231 4.0 12.0 0.00 0.00 0.00 84 1017.1
20260508064245 48 246 3.0 8.0 0.00 0.00 0.00 84 1017.2
20260508063746 48 205 4.0 9.0 0.00 0.00 0.00 83 1017.2
20260508063251 49 231 4.0 9.0 0.00 0.00 0.00 83 1017.2
20260508063246 49 234 4.0 9.0 0.00 0.00 0.00 83 1017.2
20260508062244 49 228 4.0 8.0 0.00 0.00 0.00 82 1017.2
20260508061743 49 191 4.0 8.0 0.00 0.00 0.00 82 1017.2
20260508061244 49 208 3.0 7.0 0.00 0.00 0.00 82 1017.2
20260508060744 49 273 4.0 7.0 0.00 0.00 0.00 81 1017.2
20260508060243 49 227 4.0 9.0 0.00 0.00 0.00 81 1017.3
20260508055743 49 234 4.0 9.0 0.00 0.00 0.00 81 1017.2
20260508055249 50 191 4.0 11.0 0.00 0.00 0.00 80 1017.2
20260508055243 49 219 4.0 11.0 0.00 0.00 0.00 81 1017.2
20260508054856 50 219 4.0 12.0 0.00 0.00 0.00 80 1017.2
20260508053747 50 263 3.0 9.0 0.00 0.00 0.00 79 1017.2
20260508053742 50 246 3.0 12.0 0.00 0.00 0.00 80 1017.3
20260508053241 50 277 3.0 9.0 0.00 0.00 0.00 79 1017.2
20260508052855 50 297 3.0 9.0 0.00 0.00 0.00 79 1017.2
20260508051742 51 211 3.0 8.0 0.00 0.00 0.00 79 1017.2
20260508051242 51 222 3.0 10.0 0.00 0.00 0.00 78 1017.2
20260508050742 51 207 3.0 10.0 0.00 0.00 0.00 78 1017.2
20260508050238 51 220 3.0 11.0 0.00 0.00 0.00 77 1017.1
20260508045740 51 257 3.0 11.0 0.00 0.00 0.00 77 1017.0
20260508045240 51 223 3.0 10.0 0.00 0.00 0.00 77 1017.0
20260508044743 52 215 2.0 7.0 0.00 0.00 0.00 76 1017.0
20260508044739 51 215 3.0 7.0 0.00 0.00 0.00 76 1017.0
20260508043739 52 310 2.0 7.0 0.00 0.00 0.00 76 1017.1
20260508043239 52 243 2.0 7.0 0.00 0.00 0.00 75 1017.1
20260508042738 52 254 2.0 7.0 0.00 0.00 0.00 75 1017.0
20260508042239 53 236 2.0 6.0 0.00 0.00 0.00 75 1017.1
20260508041740 53 257 2.0 5.0 0.00 0.00 0.00 74 1017.1
20260508041237 53 259 2.0 5.0 0.00 0.00 0.00 74 1017.1
20260508040736 53 240 2.0 8.0 0.00 0.00 0.00 74 1017.0
20260508040237 54 238 2.0 8.0 0.00 0.00 0.00 73 1017.0
20260508035736 54 255 1.0 5.0 0.00 0.00 0.00 73 1017.0
20260508035238 54 242 2.0 9.0 0.00 0.00 0.00 72 1016.8
20260508034737 55 250 3.0 9.0 0.00 0.00 0.00 71 1016.7
20260508034238 55 228 3.0 9.0 0.00 0.00 0.00 70 1016.7
20260508033738 56 224 4.0 10.0 0.00 0.00 0.00 69 1016.6
20260508033238 56 211 5.0 10.0 0.00 0.00 0.00 68 1016.4
20260508032736 56 226 4.0 9.0 0.00 0.00 0.00 68 1016.4
20260508032235 57 261 4.0 9.0 0.00 0.00 0.00 67 1016.3
20260508031735 57 212 5.0 9.0 0.00 0.00 0.00 66 1016.3
20260508031236 57 227 4.0 8.0 0.00 0.00 0.00 66 1016.2
20260508030736 58 218 2.0 7.0 0.00 0.00 0.00 66 1016.2
20260508030239 59 238 2.0 9.0 0.00 0.00 0.00 64 1016.1
20260508030235 58 217 1.0 5.0 0.00 0.00 0.00 65 1016.1
20260508025240 60 225 2.0 8.0 0.00 0.00 0.00 61 1016.2
20260508025233 59 235 3.0 9.0 0.00 0.00 0.00 64 1016.2
20260508024733 60 217 2.0 8.0 0.00 0.00 0.00 62 1016.2
20260508023733 60 195 2.0 6.0 0.00 0.00 0.00 60 1016.2
20260508023233 61 246 2.0 7.0 0.00 0.00 0.00 59 1016.2
20260508022734 61 240 2.0 7.0 0.00 0.00 0.00 59 1016.2
20260508022237 61 241 2.0 7.0 0.00 0.00 0.00 60 1016.2
20260508022233 61 279 3.0 7.0 0.00 0.00 0.00 59 1016.2
20260508021233 62 303 3.0 9.0 0.00 0.00 0.00 60 1016.2
20260508020733 62 296 3.0 9.0 0.00 0.00 0.00 58 1016.2
20260508020234 63 250 2.0 8.0 0.00 0.00 0.00 59 1016.1
20260508015734 63 271 3.0 9.0 0.00 0.00 0.00 60 1016.1
20260508015238 64 242 2.0 9.0 0.00 0.00 0.00 60 1016.0
20260508015234 64 248 2.0 9.0 0.00 0.00 0.00 60 1016.1
20260508014233 64 215 2.0 9.0 0.00 0.00 0.00 60 1016.1
20260508013732 64 203 3.0 9.0 0.00 0.00 0.00 60 1016.1
20260508013232 65 240 4.0 9.0 0.00 0.00 0.00 57 1016.0
20260508012733 65 221 4.0 9.0 0.00 0.00 0.00 57 1016.0
20260508012233 66 232 4.0 10.0 0.00 0.00 0.00 57 1016.1
20260508011734 66 148 3.0 10.0 0.00 0.00 0.00 56 1016.2
20260508011232 66 309 4.0 9.0 0.00 0.00 0.00 57 1016.3
20260508010734 67 194 5.0 10.0 0.00 0.00 0.00 57 1016.3
20260508010232 67 214 5.0 11.0 0.00 0.00 0.00 56 1016.4
20260508005732 67 250 4.0 11.0 0.00 0.00 0.00 56 1016.3
20260508005233 68 263 3.0 9.0 0.00 0.00 0.00 55 1016.3
20260508004738 68 282 3.0 7.0 0.00 0.00 0.00 57 1016.2
20260508004732 68 227 2.0 9.0 0.00 0.00 0.00 56 1016.2
20260508004232 68 318 2.0 7.0 0.00 0.00 0.00 58 1016.2
20260508003232 69 286 3.0 9.0 0.00 0.00 0.00 55 1016.2
20260508002732 69 215 3.0 9.0 0.00 0.00 0.00 54 1016.3
20260508002232 70 247 2.0 9.0 0.00 0.00 0.00 56 1016.2
20260508001732 70 273 2.0 9.0 0.00 0.00 0.00 56 1016.3
20260508001232 70 282 2.0 7.0 0.00 0.00 0.00 55 1016.3
20260508000732 70 276 3.0 10.0 0.00 0.00 0.00 53 1016.4
20260508000238 71 237 4.0 12.0 0.00 0.00 0.00 56 1016.4
20260508000234 70 285 2.0 11.0 0.00 0.00 0.00 56 1016.3
20260507235730 70 229 2.0 11.0 0.00 0.00 0.00 55 1016.4
20260507234734 71 173 2.0 9.0 0.00 0.00 0.00 56 1016.1
20260507234730 71 286 4.0 12.0 0.00 0.00 0.00 57 1016.4
20260507234343 71 166 2.0 6.0 0.00 0.00 0.00 52 1016.3
20260507233843 72 202 1.0 6.0 0.00 0.00 0.00 53 1016.4
20260507232736 72 185 1.0 4.0 0.00 0.00 0.00 56 1016.6
20260507232730 72 153 1.0 4.0 0.00 0.00 0.00 53 1016.4
20260507232344 71 157 1.0 4.0 0.00 0.00 0.00 55 1016.7
20260507231844 71 53 1.0 4.0 0.00 0.00 0.00 54 1016.7
20260507230733 70 9 1.0 5.0 0.00 0.00 0.00 59 1016.9
20260507230728 70 80 1.0 4.0 0.00 0.00 0.00 54 1016.8
20260507225728 70 331 1.0 5.0 0.00 0.00 0.00 56 1017.0
20260507225229 70 302 1.0 4.0 0.00 0.00 0.00 56 1017.1
20260507224732 69 329 1.0 3.0 0.00 0.00 0.00 59 1017.3
20260507224727 69 255 1.0 3.0 0.00 0.00 0.00 57 1017.2
20260507223729 69 262 2.0 6.0 0.00 0.00 0.00 57 1017.3
20260507223724 68 54 2.0 6.0 0.00 0.00 0.00 59 1017.5
20260507222722 68 17 2.0 4.0 0.00 0.00 0.00 58 1017.5
20260507222222 68 29 2.0 4.0 0.00 0.00 0.00 56 1017.5
20260507221722 68 329 2.0 4.0 0.00 0.00 0.00 58 1017.6
20260507221221 68 219 2.0 6.0 0.00 0.00 0.00 55 1017.7
20260507220722 68 187 2.0 6.0 0.00 0.00 0.00 57 1017.7
20260507220223 67 172 2.0 6.0 0.00 0.00 0.00 61 1017.7
20260507215722 67 185 2.0 6.0 0.00 0.00 0.00 58 1017.8
20260507215221 67 168 1.0 4.0 0.00 0.00 0.00 56 1017.9
20260507214726 67 38 1.0 6.0 0.00 0.00 0.00 62 1018.1
20260507214722 68 165 1.0 4.0 0.00 0.00 0.00 59 1018.0
20260507213721 67 280 1.0 6.0 0.00 0.00 0.00 58 1018.1
20260507213226 67 65 2.0 7.0 0.00 0.00 0.00 62 1018.1
20260507213222 67 138 1.0 7.0 0.00 0.00 0.00 62 1018.2
20260507212221 67 331 1.0 6.0 0.00 0.00 0.00 60 1018.3
20260507211720 67 166 1.0 6.0 0.00 0.00 0.00 65 1018.2
20260507211221 66 132 2.0 8.0 0.00 0.00 0.00 65 1018.3
20260507210720 66 184 2.0 8.0 0.00 0.00 0.00 61 1018.4
20260507210222 65 0 2.0 7.0 0.00 0.00 0.00 62 1018.5
20260507210218 65 169 2.0 7.0 0.00 0.00 0.00 58 1018.4
20260507205219 65 166 3.0 7.0 0.00 0.00 0.00 61 1018.6
20260507204723 66 13 1.0 6.0 0.00 0.00 0.00 62 1018.7
20260507204717 66 180 2.0 6.0 0.00 0.00 0.00 61 1018.6
20260507203718 65 59 1.0 6.0 0.00 0.00 0.00 62 1018.7
20260507203218 65 59 2.0 7.0 0.00 0.00 0.00 63 1018.8
20260507202723 65 163 1.0 4.0 0.00 0.00 0.00 67 1018.9
20260507202717 65 16 2.0 7.0 0.00 0.00 0.00 63 1018.8
20260507201718 65 18 2.0 4.0 0.00 0.00 0.00 62 1018.9
20260507201221 64 62 1.0 5.0 0.00 0.00 0.00 65 1019.1
20260507201217 64 9 2.0 4.0 0.00 0.00 0.00 65 1019.0
20260507200217 64 277 1.0 5.0 0.00 0.00 0.00 61 1019.1
20260507195721 64 169 2.0 5.0 0.00 0.00 0.00 64 1019.2
20260507195716 64 178 2.0 7.0 0.00 0.00 0.00 65 1019.3
20260507195329 64 166 2.0 7.0 0.00 0.00 0.00 65 1019.3
20260507194216 64 326 2.0 5.0 0.00 0.00 0.00 67 1019.3
20260507193717 64 5 2.0 5.0 0.00 0.00 0.00 64 1019.4
20260507193214 63 340 3.0 7.0 0.00 0.00 0.00 68 1019.4
20260507192715 63 333 3.0 7.0 0.00 0.00 0.00 68 1019.4
20260507192213 63 25 1.0 6.0 0.00 0.00 0.00 64 1019.5
20260507191718 63 185 1.0 4.0 0.00 0.00 0.00 66 1019.6
20260507191714 63 112 1.0 6.0 0.00 0.00 0.00 70 1019.6
20260507190713 63 213 1.0 4.0 0.00 0.00 0.00 66 1019.7
20260507190212 62 46 2.0 4.0 0.00 0.00 0.00 64 1019.7
20260507185712 62 204 2.0 8.0 0.00 0.00 0.00 65 1019.7
20260507185216 62 5 2.0 8.0 0.00 0.00 0.00 68 1019.9
20260507185210 62 14 3.0 9.0 0.00 0.00 0.00 66 1019.9
20260507184208 62 5 4.0 9.0 0.00 0.00 0.00 69 1019.9
20260507183709 62 21 2.0 8.0 0.00 0.00 0.00 72 1019.8
20260507183207 62 291 1.0 4.0 0.00 0.00 0.00 69 1019.9
20260507182708 61 204 1.0 4.0 0.00 0.00 0.00 71 1019.9
20260507182207 60 248 1.0 3.0 0.00 0.00 0.00 72 1019.9
20260507181713 59 179 1.0 4.0 0.00 0.00 0.00 70 1020.1
20260507181708 60 245 1.0 4.0 0.00 0.00 0.00 69 1020.0
20260507180709 58 177 1.0 4.0 0.00 0.00 0.00 72 1020.1
20260507180212 58 30 1.0 3.0 0.00 0.00 0.00 72 1020.2
20260507180208 58 35 0.0 2.0 0.00 0.00 0.00 70 1020.1
20260507175206 58 31 1.0 3.0 0.00 0.00 0.00 74 1020.2
20260507174705 58 312 2.0 6.0 0.00 0.00 0.00 71 1020.3
20260507174205 59 11 3.0 6.0 0.00 0.00 0.00 72 1020.2
20260507173703 59 349 3.0 7.0 0.00 0.00 0.00 71 1020.3
20260507173203 59 329 3.0 7.0 0.00 0.00 0.00 72 1020.3
20260507172704 59 0 3.0 6.0 0.00 0.00 0.00 75 1020.4
20260507172204 58 10 2.0 5.0 0.00 0.00 0.00 77 1020.4
20260507171704 57 279 1.0 4.0 0.00 0.00 0.00 74 1020.4
20260507171207 56 323 0.0 2.0 0.00 0.00 0.00 78 1020.3
20260507171203 56 324 0.0 2.0 0.00 0.00 0.00 78 1020.4
20260507170205 56 322 0.0 2.0 0.00 0.00 0.00 79 1020.3
20260507165704 56 321 1.0 2.0 0.00 0.00 0.00 78 1020.3
20260507165203 56 314 1.0 2.0 0.00 0.00 0.00 76 1020.3
20260507164705 56 316 1.0 2.0 0.00 0.00 0.00 78 1020.4
20260507164204 56 9 1.0 3.0 0.00 0.00 0.00 79 1020.4
20260507163704 55 5 1.0 3.0 0.00 0.00 0.00 78 1020.4
20260507163203 55 9 1.0 3.0 0.00 0.00 0.00 79 1020.4
20260507162704 56 17 1.0 3.0 0.00 0.00 0.00 79 1020.4
20260507162203 56 241 1.0 2.0 0.00 0.00 0.00 79 1020.4
20260507161703 55 273 1.0 3.0 0.00 0.00 0.00 79 1020.4
20260507161203 55 275 1.0 3.0 0.00 0.00 0.00 79 1020.4
20260507160704 55 275 1.0 2.0 0.00 0.00 0.00 79 1020.4
20260507160205 55 188 0.0 2.0 0.00 0.00 0.00 80 1020.4
20260507155709 55 273 1.0 2.0 0.00 0.00 0.00 81 1020.5
20260507155704 55 273 0.0 2.0 0.00 0.00 0.00 81 1020.4
20260507154703 54 273 1.0 2.0 0.00 0.00 0.00 81 1020.4
20260507154204 54 258 1.0 2.0 0.00 0.00 0.00 82 1020.5
20260507153703 54 257 0.0 2.0 0.00 0.00 0.00 82 1020.6
20260507153203 54 257 0.0 2.0 0.00 0.00 0.00 81 1020.6
20260507152705 54 257 1.0 2.0 0.00 0.00 0.00 81 1020.6
20260507152205 53 257 1.0 2.0 0.00 0.00 0.00 82 1020.6
20260507151703 53 258 0.0 2.0 0.00 0.00 0.00 82 1020.6
20260507151204 53 255 1.0 3.0 0.00 0.00 0.00 83 1020.7
20260507150703 53 306 1.0 3.0 0.00 0.00 0.00 82 1020.6
20260507150203 53 261 1.0 3.0 0.00 0.00 0.00 83 1020.7
20260507145704 53 248 0.0 3.0 0.00 0.00 0.00 83 1020.7
20260507145202 53 250 1.0 2.0 0.00 0.00 0.00 84 1020.6
20260507144706 53 261 0.0 3.0 0.00 0.00 0.00 84 1020.6
20260507144702 53 261 1.0 2.0 0.00 0.00 0.00 83 1020.6
20260507143701 52 261 0.0 3.0 0.00 0.00 0.00 84 1020.6
20260507143206 52 262 1.0 2.0 0.00 0.00 0.00 84 1020.6
20260507143202 52 261 1.0 2.0 0.00 0.00 0.00 84 1020.6
20260507142814 52 239 1.0 2.0 0.00 0.00 0.00 85 1020.6
20260507141659 52 238 0.0 2.0 0.00 0.00 0.00 85 1020.5
20260507141201 52 244 0.0 2.0 0.00 0.00 0.00 85 1020.4
20260507140701 52 244 0.0 2.0 0.00 0.00 0.00 85 1020.5
20260507140159 52 244 0.0 2.0 0.00 0.00 0.00 85 1020.4
20260507135659 52 244 0.0 2.0 0.00 0.00 0.00 85 1020.4
20260507135203 52 242 0.0 3.0 0.00 0.00 0.00 85 1020.3
20260507135158 51 240 0.0 3.0 0.00 0.00 0.00 85 1020.3
20260507134158 51 234 1.0 3.0 0.00 0.00 0.00 85 1020.2
20260507133658 51 235 1.0 3.0 0.00 0.00 0.00 84 1020.3
20260507133157 51 248 0.0 2.0 0.00 0.00 0.00 85 1020.2
20260507132657 51 249 1.0 3.0 0.00 0.00 0.00 85 1020.2
20260507132155 51 238 1.0 3.0 0.00 0.00 0.00 85 1020.2
20260507131655 51 232 1.0 3.0 0.00 0.00 0.00 85 1020.3
20260507131155 51 229 1.0 3.0 0.00 0.00 0.00 85 1020.3
20260507130659 51 222 1.0 3.0 0.00 0.00 0.00 85 1020.3
20260507130655 51 239 1.0 3.0 0.00 0.00 0.00 85 1020.3
20260507125655 51 226 0.0 2.0 0.00 0.00 0.00 85 1020.3
20260507125154 51 225 0.0 2.0 0.00 0.00 0.00 85 1020.3
20260507124654 52 222 1.0 3.0 0.00 0.00 0.00 85 1020.4
20260507124153 52 221 1.0 3.0 0.00 0.00 0.00 84 1020.3
20260507123657 52 225 0.0 2.0 0.00 0.00 0.00 85 1020.4
20260507123653 52 225 0.0 0.0 0.00 0.00 0.00 85 1020.4
20260507122653 52 222 1.0 2.0 0.00 0.00 0.00 84 1020.4
20260507122154 52 221 1.0 3.0 0.00 0.00 0.00 85 1020.4
20260507121653 52 224 1.0 3.0 0.00 0.00 0.00 84 1020.5
20260507121156 52 224 1.0 4.0 0.00 0.00 0.00 84 1020.5
20260507121152 52 250 1.0 4.0 0.00 0.00 0.00 84 1020.5
20260507120157 52 226 1.0 4.0 0.00 0.00 0.00 85 1020.6
20260507120153 52 235 2.0 3.0 0.00 0.00 0.00 84 1020.5
20260507115652 52 215 2.0 4.0 0.00 0.00 0.00 85 1020.5
20260507114652 52 238 0.0 3.0 0.00 0.00 0.00 85 1020.7